Regional Weather Roundup
Issued by NWS Northern Indiana

Home | Current Version | Previous Version | Text Only | Print | Product List | Glossary On
Versions: 1 2 3 4 5 6 7 8 9 10 11 12 13 14 15 16 17 18 19 20 21 22 23 24 25 26 27 28 29 30 31 32 33 34 35 36 37 38 39 40 41 42 43 44 45 46 47 48 49 50
000
ASUS43 KIWX 240801
RWRIWX

KIWX WEATHER ROUNDUP
NATIONAL WEATHER SERVICE NORTHERN INDIANA
400 AM EDT TUE OCT 24 2017

NOTE: "FAIR" INDICATES FEW OR NO CLOUDS BELOW 12,000 FEET WITH NO
SIGNIFICANT WEATHER AND/OR OBSTRUCTIONS TO VISIBILITY.

* THESE STATIONS ARE NOT UNDER NWS QUALITY CONTROL. THEY ALSO MAY NOT
  REPORT WEATHER SUCH AS PRECIPITATION OR FOG.

INZ001>027-240900-
NORTHERN INDIANA

CITY           SKY/WX    TMP DP  RH WIND       PRES   REMARKS
MICHIGAN CITY* RAIN      48  48 100 W9        29.54F
SOUTH BEND     HVY RAIN  49  49 100 SW10      29.53F FOG
GOSHEN         LGT RAIN  50  46  86 SW12      29.53F
MONTICELLO*    CLOUDY    49  47  95 W8        29.59F
FORT WAYNE     LGT RAIN  50  47  89 SW10      29.58F FOG
PERU/GRISSOM   CLOUDY    49  49 100 W13       29.59F

$$
INZ028>050-240900-
CENTRAL INDIANA

CITY           SKY/WX    TMP DP  RH WIND       PRES   REMARKS
LAFAYETTE      CLOUDY    49  48  97 W14       29.62F
KOKOMO*        LGT RAIN  49  48  97 SW12      29.61F
MUNCIE*        LGT RAIN  50  47  89 SW7       29.62F
INDIANAPOLIS   LGT RAIN  49  47  93 SW14      29.67S

$$
MIZ043>046-050>051-056>058-064>065-071>073-077>080-240900-
SOUTHWEST LOWER MICHIGAN

CITY           SKY/WX    TMP DP  RH WIND       PRES   REMARKS
BATTLE CREEK   MOCLDY    50  49  96 S12       29.50F
BENTON HARBOR  CLOUDY    53  47  79 W7        29.49F
COLDWATER*     DRIZZLE   49  48  98 SW7       29.52F
HILLSDALE*     DRIZZLE   46  43  87 S9        29.53S
HOLLAND        CLOUDY    51  46  83 S6        29.48F
GRAND RAPIDS   CLOUDY    48  48 100 SW3       29.47F
KALAMAZOO      CLOUDY    50  46  86 S13       29.50F
STURGIS*       CLOUDY    48  47  97 SW8       29.51F
THREE RIVERS*  DRIZZLE   50  49  94 SW8       29.51F

$$
OHZ001>008-015>018-024>025-240900-
NORTHWEST OHIO

CITY           SKY/WX    TMP DP  RH WIND       PRES   REMARKS
DEFIANCE       CLOUDY    50  47  89 S13       29.58F
FINDLAY        CLOUDY    49  44  83 SW16      29.60F
TOLEDO EXPRESS CLOUDY    48  47  96 S8        29.57S
TOLEDO METCALF CLOUDY    49  44  83 SW9       29.59S
LIMA           CLOUDY    48  46  93 S9        29.62F

$$
AND FOR LAKE MICHIGAN COASTAL AND OPEN LAKE BUOY OBSERVATIONS

STATION/POSITION TEMP    WIND        PRES    VSBY  WAVE
                 AIR SEA DIR/SP/G                  HT/PER
                 (F)     (DEG/KT/KT) (MB)    (MI)  (FT/S)
CALUMET HARBOR    49     240/  5/ 11 1000.2F
MICHIGAN CITY     51     240/ 24/ 27   N/A
BURNS HARBOR      51     260/ 15/ 20 1001.0F
SAINT JOSEPH      55     290/ 14/ 18 1000.0
SOUTH LAKE BUOY   54 60  320/ 16/ 19  998.7
4 MI NW BRIDGMAN  53 58  280/ 19/ 25  999.6F         7/ 5
MICHIGAN CITY     52 57  270/ 17/ 23   N/A           7/ 5

$$
&&




USA.gov is the U.S. government's official web portal to all federal, state and local government web resources and services.